Location: Whitehorse
(60.7170°N, 135.0500°W)
Time: 03:21:10
(UTC-07:00)

SL-16 R/B - Visible Passes

Search period start: 21 October 2014 00:00
Search period end: 31 October 2014 00:00
Orbit: 840 x 850 km, 71.0° (Epoch: 19 October)

Date Brightness Start Highest point End Pass type
(mag) Time Alt. Az. Time Alt. Az. Time Alt. Az.
21 Oct 4.7 00:53:38 13° NE 00:53:38 13° NE 00:54:10 10° NE visible
21 Oct 4.0 02:35:32 27° NNE 02:35:32 27° NNE 02:39:08 10° ENE visible
21 Oct 3.5 04:17:27 27° NNW 04:19:44 37° NNE 04:24:59 10° E visible
21 Oct 2.3 05:59:22 13° NW 06:04:37 80° NE 06:10:19 10° SE visible
21 Oct 2.9 07:43:22 10° NW 07:48:21 32° WSW 07:53:18 10° S visible
22 Oct 4.2 02:22:22 23° NNE 02:22:22 23° NNE 02:25:09 10° ENE visible
22 Oct 3.5 04:04:18 32° N 04:05:45 37° NNE 04:11:00 10° E visible
22 Oct 2.3 05:46:13 18° NW 05:50:39 79° NE 05:56:21 10° SE visible
22 Oct 2.9 07:29:23 10° NW 07:34:24 33° WSW 07:39:24 10° S visible
23 Oct 4.5 02:09:23 18° NE 02:09:23 18° NE 02:11:10 10° NE visible
23 Oct 3.5 03:51:20 36° NNE 03:51:46 36° NNE 03:57:01 10° E visible
23 Oct 2.3 05:33:16 25° NW 05:36:41 78° NE 05:42:23 10° SE visible
23 Oct 2.8 07:15:25 10° NW 07:20:28 34° WSW 07:25:29 10° S visible
23 Oct 4.0 20:34:51 10° SSE 20:35:40 13° SE 20:35:40 13° SE visible
23 Oct 4.2 22:16:35 10° SSW 22:17:40 16° SSW 22:17:40 16° SSW visible
24 Oct 4.8 01:56:38 12° NE 01:56:38 12° NE 01:57:11 10° NE visible
24 Oct 3.6 03:38:35 34° NE 03:38:35 34° NE 03:43:01 10° E visible
24 Oct 2.3 05:20:33 40° NNW 05:22:43 77° NE 05:28:25 10° SE visible
24 Oct 2.8 07:02:30 15° NW 07:06:31 34° WSW 07:11:34 10° S visible
24 Oct 3.6 20:20:58 10° SSE 20:23:34 19° ESE 20:23:34 19° ESE visible
24 Oct 3.3 22:02:38 10° SSW 22:05:33 32° SSW 22:05:33 32° SSW visible
24 Oct 4.7 23:47:19 10° WSW 23:47:32 11° WSW 23:47:32 11° WSW visible
25 Oct 4.0 03:26:07 26° ENE 03:26:07 26° ENE 03:29:01 10° E visible
25 Oct 2.3 05:08:06 67° N 05:08:45 75° NE 05:14:26 10° SE visible
25 Oct 2.7 06:50:04 24° WNW 06:52:34 35° WSW 06:57:39 10° S visible
25 Oct 3.4 20:07:06 10° SSE 20:11:05 20° ESE 20:11:13 20° E visible
25 Oct 2.4 21:48:41 10° SSW 21:53:11 55° S 21:53:11 55° S visible
25 Oct 4.2 23:33:20 10° WSW 23:35:09 20° W 23:35:09 20° W visible
26 Oct 4.6 03:13:55 15° E 03:13:55 15° E 03:15:02 10° E visible
26 Oct 2.6 04:55:54 57° ESE 04:55:54 57° ESE 05:00:28 10° SE visible
26 Oct 2.7 06:37:54 34° W 06:38:37 36° WSW 06:43:43 10° S visible
26 Oct 3.4 19:53:13 10° SE 19:57:08 20° E 19:58:36 18° E visible
26 Oct 2.1 21:34:44 10° SSW 21:40:22 68° ESE 21:40:33 67° ESE visible
26 Oct 3.7 23:19:20 10° WSW 23:22:29 31° W 23:22:29 31° W visible
27 Oct 3.7 04:43:56 28° SE 04:43:56 28° SE 04:46:30 10° SE visible
27 Oct 2.9 06:25:57 33° SW 06:25:57 33° SW 06:29:48 10° S visible
27 Oct 3.5 19:39:20 10° SE 19:43:12 19° E 19:45:43 15° ENE visible
27 Oct 2.1 21:20:47 10° SSW 21:26:25 67° ESE 21:27:39 52° ENE visible
27 Oct 3.3 23:05:21 10° WSW 23:09:35 41° WNW 23:09:35 41° WNW visible
28 Oct 4.9 00:51:14 10° WNW 00:51:30 11° WNW 00:51:30 11° WNW visible
28 Oct 4.6 04:32:06 12° SE 04:32:06 12° SE 04:32:31 10° SE visible
28 Oct 3.8 06:14:07 19° SSW 06:14:07 19° SSW 06:15:52 10° S visible
28 Oct 3.5 19:25:28 10° SE 19:29:16 19° E 19:32:38 12° ENE visible
28 Oct 2.1 21:06:49 10° SSW 21:12:27 65° ESE 21:14:33 39° ENE visible
28 Oct 3.0 22:51:22 10° WSW 22:56:28 47° NW 22:56:28 47° NW visible
29 Oct 4.7 00:37:14 10° WNW 00:38:23 15° WNW 00:38:23 15° WNW visible
29 Oct 3.6 19:11:36 10° SE 19:15:19 18° E 19:19:04 10° ENE visible
29 Oct 2.1 20:52:52 10° SSW 20:58:29 64° ESE 21:01:17 30° NE visible
29 Oct 3.0 22:37:22 10° WSW 22:42:54 49° NNW 22:43:12 49° NNW visible
30 Oct 4.5 00:23:14 10° WNW 00:25:06 19° NW 00:25:06 19° NW visible
30 Oct 3.6 18:57:43 10° SE 19:01:23 18° E 19:05:03 10° ENE visible
30 Oct 2.2 20:38:55 10° SSW 20:44:32 63° ESE 20:47:55 25° NE visible
30 Oct 2.9 22:23:23 10° WSW 22:28:55 50° NW 22:29:48 46° N visible
